This demonstration page uses our WeatherBlox Daily Observations layout. Learn more.

Left ArrowRight Arrow

Hourly Observations for December 15, 2021

Temp ( °F °C ) Dew Point ( °F °C ) Humidity (%) Winds ( mph kmh ) Pressure ( in mb ) Visibility ( mi km ) Precip ( " mm )
12:59 am 00:59 Partly Cloudy 47 8.3 43 6.1 86 86 NNE 7 11 30.53 1034 10 16 0.00 0.00
1:59 am 01:59 Clear 47 8.3 43 6.1 86 86 NNE 5 7 30.53 1034 9 14 0.00 0.00
2:59 am 02:59 Clear 47 8.3 44 6.7 90 90 NNE 6 9 30.53 1034 9 14 0.00 0.00
3:59 am 03:59 Clear 48 8.9 44 6.7 86 86 NNE 7 11 30.53 1034 9 14 0.00 0.00
4:59 am 04:59 Mostly Cloudy 48 8.9 45 7.2 89 89 NNE 7 11 30.52 1033 9 14 0.00 0.00
5:59 am 05:59 Mostly Clear 49 9.4 45 7.2 86 86 NNE 7 11 30.53 1034 9 14 0.00 0.00
6:59 am 06:59 Mostly Cloudy 49 9.4 46 7.8 90 90 NE 6 9 30.53 1034 9 14 0.00 0.00
7:59 am 07:59 Cloudy 50 10 47 8.3 89 89 NNW 3 6 30.53 1034 7 11 0.00 0.00
8:59 am 08:59 Mostly Cloudy 52 11.1 47 8.3 83 83 N 5 7 30.54 1034 9 14 0.00 0.00
9:59 am 09:59 Mostly Cloudy 54 12.2 48 8.9 80 80 NE 3 6 30.54 1034 9 14 0.00 0.00
10:59 am 10:59 Mostly Sunny 58 14.4 48 8.9 70 70 NNE 7 11 30.52 1034 9 14 0.00 0.00
11:59 am 11:59 Partly Cloudy 58 14.4 49 9.4 72 72 E 3 6 30.48 1032 9 14 0.00 0.00
12:59 pm 12:59 Partly Cloudy 61 16.1 49 9.4 65 65 ENE 5 7 30.45 1031 9 14 0.00 0.00
1:59 pm 13:59 Mostly Cloudy 62 16.7 51 10.6 67 67 NE 7 11 30.43 1030 9 14 0.00 0.00
2:59 pm 14:59 Partly Cloudy 59 15 50 10 72 72 ENE 5 7 30.41 1030 8 13 0.00 0.00
3:59 pm 15:59 Mostly Cloudy 58 14.4 50 10 75 75 ENE 6 9 30.41 1030 8 13 0.00 0.00
4:59 pm 16:59 Mostly Cloudy 53 11.7 49 9.4 86 86 Calm 30.40 1030 8 13 0.00 0.00
5:59 pm 17:59 Mostly Cloudy 52 11.1 48 8.9 86 86 Calm 30.40 1030 8 13 0.00 0.00
6:59 pm 18:59 Mostly Cloudy 50 10 47 8.3 89 89 Calm 30.40 1030 7 11 0.00 0.00
7:59 pm 19:59 Mostly Cloudy 49 9.4 46 7.8 90 90 Calm 30.40 1029 7 11 0.00 0.00
8:07 pm 20:07 Clear with Mist and Fog 48 8.9 46 7.8 93 93 Calm 30.40 1029 3 4 0.00 0.00
8:15 pm 20:15 Mostly Clear with Mist and Fog 49 9.4 46 7.8 90 90 Calm 30.40 1029 4 6 0.00 0.00
8:59 pm 20:59 Mostly Clear with Mist and Fog 51 10.6 49 9.4 92 92 S 5 7 30.39 1029 5 8 0.00 0.00
9:59 pm 21:59 Mostly Clear 54 12.2 51 10.6 90 90 S 6 9 30.38 1029 8 13 0.00 0.00
10:59 pm 22:59 Partly Cloudy 52 11.1 50 10 93 93 S 6 9 30.37 1028 7 11 0.00 0.00
11:59 pm 23:59 Partly Cloudy 54 12.2 51 10.6 90 90 S 7 11 30.35 1028 7 11 0.00 0.00

Powered by AerisWeather